When you browse on this site, cookies collect data to enhance your experience and personalize the content and advertising you see.
Visit our Privacy Policy to learn more. By continuing to use the site, you agree to this use of cookies and data.
  • în România
  • Lista ţărilor
  • Pe 7 zile
  • Temperatura apei
  • Hartă satelitară
  • Meteo pe hartă
  • Widget-uri
  • user-avatar
    Intrare

    Meteo pe oră la Shahabad

    Astăzi, 19 Iulie, Vineri

    Timp Temperatura Precipitaţii Vânt Presiune Umiditate
    00:00 +32°C° 0 mm 1 m/s 735 mmHg 62%
    01:00 +32°C° 0 mm 1 m/s 735 mmHg 62%
    02:00 +32°C° 0 mm 1 m/s 734 mmHg 63%
    03:00 +32°C° 0 mm 1 m/s 734 mmHg 64%
    04:00 +31°C° 0 mm 2 m/s 734 mmHg 65%
    05:00 +31°C° 0 mm 1 m/s 735 mmHg 65%
    06:00 +32°C° 0 mm 2 m/s 735 mmHg 60%
    07:00 +35°C° 0 mm 2 m/s 735 mmHg 55%
    08:00 +36°C° 0 mm 3 m/s 736 mmHg 50%
    09:00 +37°C° 0 mm 2 m/s 736 mmHg 46%
    10:00 +38°C° 0 mm 2 m/s 736 mmHg 42%
    11:00 +40°C° 0 mm 1 m/s 736 mmHg 40%
    12:00 +40°C° 0 mm 1 m/s 736 mmHg 39%
    13:00 +40°C° 0 mm 1 m/s 735 mmHg 39%
    14:00 +40°C° 0 mm 1 m/s 735 mmHg 38%
    15:00 +40°C° 0 mm 1 m/s 734 mmHg 38%
    16:00 +40°C° 0 mm 1 m/s 734 mmHg 38%
    17:00 +36°C° 0 mm 0 m/s 734 mmHg 40%
    18:00 +39°C° 0 mm 1 m/s 734 mmHg 42%
    19:00 +37°C° 0 mm 1 m/s 734 mmHg 45%
    20:00 +37°C° 0 mm 1 m/s 735 mmHg 47%
    21:00 +37°C° 0 mm 2 m/s 735 mmHg 49%
    22:00 +36°C° 0 mm 2 m/s 735 mmHg 51%
    23:00 +36°C° 0 mm 2 m/s 735 mmHg 54%

    Mâine, 20 Iulie, Sâmbătă

    Timp Temperatura Precipitaţii Vânt Presiune Umiditate
    00:00 +35°C° 0 mm 2 m/s 735 mmHg 55%
    01:00 +35°C° 0 mm 2 m/s 735 mmHg 56%
    02:00 +34°C° 0 mm 2 m/s 734 mmHg 57%
    03:00 +34°C° 0.1 mm 2 m/s 735 mmHg 58%
    04:00 +34°C° 0.1 mm 2 m/s 735 mmHg 58%
    05:00 +32°C° 0.1 mm 2 m/s 735 mmHg 59%
    06:00 +35°C° 0.1 mm 2 m/s 735 mmHg 55%
    07:00 +36°C° 0.1 mm 2 m/s 736 mmHg 51%
    08:00 +37°C° 0.1 mm 2 m/s 737 mmHg 47%
    09:00 +38°C° 0 mm 2 m/s 736 mmHg 43%
    10:00 +40°C° 0 mm 2 m/s 736 mmHg 40%
    11:00 +41°C° 0 mm 2 m/s 736 mmHg 36%
    12:00 +41°C° 0 mm 2 m/s 736 mmHg 35%
    13:00 +41°C° 0 mm 1 m/s 735 mmHg 35%
    14:00 +41°C° 0 mm 1 m/s 735 mmHg 34%
    15:00 +41°C° 0 mm 1 m/s 734 mmHg 35%
    16:00 +41°C° 0 mm 1 m/s 734 mmHg 35%
    17:00 +38°C° 0 mm 0 m/s 734 mmHg 36%
    18:00 +37°C° 0 mm 0 m/s 734 mmHg 37%
    19:00 +40°C° 0 mm 1 m/s 734 mmHg 39%
    20:00 +39°C° 0 mm 1 m/s 734 mmHg 41%
    21:00 +37°C° 0 mm 1 m/s 735 mmHg 43%
    22:00 +37°C° 0 mm 1 m/s 735 mmHg 44%
    23:00 +36°C° 0 mm 1 m/s 735 mmHg 46%

    Poimâine, 21 Iulie, Duminică

    Timp Temperatura Precipitaţii Vânt Presiune Umiditate
    00:00 +36°C° 0 mm 1 m/s 735 mmHg 47%
    01:00 +36°C° 0 mm 2 m/s 735 mmHg 49%
    02:00 +36°C° 0 mm 2 m/s 734 mmHg 50%
    03:00 +35°C° 0 mm 2 m/s 734 mmHg 51%
    04:00 +35°C° 0 mm 2 m/s 734 mmHg 52%
    05:00 +34°C° 0 mm 2 m/s 735 mmHg 54%
    06:00 +36°C° 0 mm 2 m/s 735 mmHg 51%
    07:00 +37°C° 0 mm 2 m/s 735 mmHg 48%
    08:00 +38°C° 0 mm 3 m/s 736 mmHg 44%
    09:00 +39°C° 0 mm 2 m/s 735 mmHg 41%
    10:00 +41°C° 0 mm 2 m/s 735 mmHg 37%
    11:00 +42°C° 0 mm 2 m/s 735 mmHg 33%
    12:00 +42°C° 0 mm 2 m/s 735 mmHg 33%
    13:00 +42°C° 0 mm 2 m/s 734 mmHg 33%
    14:00 +42°C° 0 mm 2 m/s 734 mmHg 33%
    15:00 +42°C° 0 mm 2 m/s 733 mmHg 33%
    16:00 +42°C° 0 mm 2 m/s 733 mmHg 33%
    17:00 +42°C° 0 mm 2 m/s 732 mmHg 33%
    18:00 +41°C° 0 mm 1 m/s 733 mmHg 35%
    19:00 +40°C° 0 mm 1 m/s 733 mmHg 38%
    20:00 +36°C° 0 mm 0 m/s 733 mmHg 41%
    21:00 +36°C° 0 mm 0 m/s 733 mmHg 42%
    22:00 +35°C° 0 mm 0 m/s 733 mmHg 44%
    23:00 +35°C° 0 mm 0 m/s 733 mmHg 45%

    22 Iulie, Luni

    Timp Temperatura Precipitaţii Vânt Presiune Umiditate
    00:00 +36°C° 0.1 mm 1 m/s 733 mmHg 47%
    01:00 +36°C° 0.1 mm 1 m/s 733 mmHg 48%
    02:00 +35°C° 0.1 mm 1 m/s 733 mmHg 50%
    03:00 +34°C° 0.4 mm 1 m/s 733 mmHg 53%
    04:00 +35°C° 0.4 mm 2 m/s 733 mmHg 55%
    05:00 +34°C° 0.4 mm 2 m/s 733 mmHg 58%
    06:00 +35°C° 0 mm 2 m/s 733 mmHg 56%
    07:00 +36°C° 0 mm 3 m/s 733 mmHg 54%
    08:00 +37°C° 0 mm 3 m/s 734 mmHg 52%
    09:00 +39°C° 0 mm 3 m/s 733 mmHg 46%
    10:00 +40°C° 0 mm 2 m/s 733 mmHg 41%
    11:00 +42°C° 0 mm 2 m/s 733 mmHg 35%
    12:00 +43°C° 0 mm 2 m/s 733 mmHg 33%
    13:00 +43°C° 0 mm 2 m/s 732 mmHg 31%
    14:00 +45°C° 0 mm 2 m/s 732 mmHg 28%
    15:00 +43°C° 0 mm 2 m/s 731 mmHg 30%
    16:00 +42°C° 0 mm 2 m/s 731 mmHg 32%
    17:00 +42°C° 0 mm 2 m/s 730 mmHg 34%
    18:00 +41°C° 0 mm 2 m/s 731 mmHg 36%
    19:00 +40°C° 0 mm 1 m/s 731 mmHg 37%
    20:00 +39°C° 0 mm 1 m/s 731 mmHg 39%
    21:00 +39°C° 0 mm 1 m/s 731 mmHg 40%
    22:00 +39°C° 0 mm 1 m/s 731 mmHg 41%
    23:00 +37°C° 0 mm 1 m/s 732 mmHg 42%

    23 Iulie, Marţi

    Timp Temperatura Precipitaţii Vânt Presiune Umiditate
    00:00 +38°C° 0 mm 2 m/s 731 mmHg 45%
    01:00 +37°C° 0 mm 2 m/s 731 mmHg 49%
    02:00 +36°C° 0 mm 3 m/s 731 mmHg 52%
    03:00 +36°C° 0 mm 3 m/s 731 mmHg 55%
    04:00 +35°C° 0 mm 4 m/s 731 mmHg 58%
    05:00 +34°C° 0 mm 4 m/s 731 mmHg 61%
    06:00 +35°C° 0 mm 5 m/s 732 mmHg 62%
    07:00 +35°C° 0 mm 5 m/s 732 mmHg 62%
    08:00 +36°C° 0 mm 6 m/s 733 mmHg 62%
    09:00 +39°C° 0 mm 5 m/s 732 mmHg 56%
    10:00 +40°C° 0 mm 4 m/s 732 mmHg 50%
    11:00 +42°C° 0 mm 3 m/s 732 mmHg 44%
    12:00 +43°C° 0 mm 3 m/s 732 mmHg 39%
    13:00 +43°C° 0 mm 2 m/s 731 mmHg 35%
    14:00 +44°C° 0 mm 1 m/s 731 mmHg 31%
    15:00 +43°C° 0 mm 1 m/s 730 mmHg 33%
    16:00 +43°C° 0 mm 2 m/s 730 mmHg 35%
    17:00 +42°C° 0 mm 2 m/s 730 mmHg 36%
    18:00 +40°C° 0 mm 3 m/s 730 mmHg 44%
    19:00 +40°C° 0 mm 5 m/s 730 mmHg 51%
    20:00 +38°C° 0 mm 7 m/s 730 mmHg 59%
    21:00 +36°C° 0.1 mm 6 m/s 730 mmHg 62%
    22:00 +36°C° 0.1 mm 6 m/s 731 mmHg 65%
    23:00 +35°C° 0.1 mm 6 m/s 731 mmHg 68%

    24 Iulie, Miercuri

    Timp Temperatura Precipitaţii Vânt Presiune Umiditate
    00:00 +34°C° 0.2 mm 6 m/s 731 mmHg 70%
    01:00 +33°C° 0.2 mm 7 m/s 731 mmHg 73%
    02:00 +33°C° 0.2 mm 7 m/s 731 mmHg 76%
    03:00 +32°C° 0.3 mm 7 m/s 731 mmHg 77%
    04:00 +32°C° 0.3 mm 7 m/s 731 mmHg 78%
    05:00 +32°C° 0.3 mm 7 m/s 731 mmHg 78%
    06:00 +32°C° 0.1 mm 7 m/s 732 mmHg 79%
    07:00 +32°C° 0.1 mm 7 m/s 732 mmHg 79%
    08:00 +32°C° 0.1 mm 7 m/s 732 mmHg 79%
    09:00 +32°C° 0 mm 7 m/s 733 mmHg 77%
    10:00 +33°C° 0 mm 7 m/s 733 mmHg 75%
    11:00 +33°C° 0 mm 7 m/s 733 mmHg 73%
    12:00 +34°C° 0 mm 7 m/s 733 mmHg 71%
    13:00 +34°C° 0 mm 8 m/s 732 mmHg 69%
    14:00 +34°C° 0 mm 8 m/s 732 mmHg 68%
    15:00 +34°C° 0 mm 8 m/s 732 mmHg 69%
    16:00 +33°C° 0 mm 8 m/s 731 mmHg 71%
    17:00 +33°C° 0 mm 8 m/s 731 mmHg 72%
    18:00 +32°C° 1 mm 6 m/s 732 mmHg 76%
    19:00 +30°C° 1 mm 5 m/s 732 mmHg 79%
    20:00 +30°C° 1 mm 4 m/s 732 mmHg 82%
    21:00 +29°C° 1.1 mm 3 m/s 733 mmHg 84%
    22:00 +29°C° 1.1 mm 3 m/s 733 mmHg 85%
    23:00 +29°C° 1.1 mm 3 m/s 733 mmHg 86%
    Arată mai mult